www.pogodaiklimat.ru

Погода и климат >> Архив погоды >> Марокко >> Эль-Хосейма


ПОГОДА в Эль-Хосейме

  • Прогноз погоды в Эль-Хосейме
  • Монитор погоды в Эль-Хосейме

АРХИВ ПОГОДЫ в Эль-Хосейме

Время (UTC), дата Ветер
(напр.,м/с)
 
Видим.   Явления Облачность Т
(С)
Тd
(С)
f
(%)
Тe
(С)
Тes
(С)
Комфортность P
(гПа)
Po
(гПа)
Тmin
(С)
Tmax
(С)
R
(мм)
R24
(мм)
S
(см)
21 12.07 СВ 2-4
{14}
8000 м 5/3 400 м
[St Ci sp]
+22.2 +20.3 89 +28 +28 душно 1016.3 1014.6
00 13.07 СЗ 6-8
{14}
8000 м 3/0
[Ci sp]
+21.7 +20.2 91 +27 +27 душно 1015.8 1014.1
03 13.07 Ю 4-4
{4}
8000 м ясно +21.2 +18.9 87 +26 +26 душно 1015.1 1013.4
06 13.07 СЗ 6-6
{8}
8000 м ясно +21.1 +18.7 86 +25 +26 комфорт 1015.1 1013.4 +20.5
09 13.07 С 10-10
{10}
8000 м 3/3 400 м
[St]
+23.0 +19.8 82 +30 +30 очень
душно
1015.8 1014.1
12 13.07 В 10-14
{17}
8000 м 3/3 600 м
[Cu hum]
+24.3 +19.6 75 +30 +30 очень
душно
1015.6 1013.9
15 13.07 С 8-14
{14}
9000 м 3/3 400 м
[St]
+25.2 +17.4 62 +29 +31 душно 1014.5 1012.8
18 13.07 СВ 6-10
{14}
10 км ясно +24.0 +17.7 68 +28 +29 душно 1013.6 1011.9 +26.1
21 13.07 Ю 4-6
{6}
10 км ясно +23.7 +17.7 69 +28 +28 душно 1014.8 1013.1
00 14.07 СВ 4-6
{10}
10 км ясно +21.8 +17.6 77 +26 +26 душно 1014.7 1013.0
03 14.07 ЮВ 2 14 км ясно +21.3 +16.7 75 +25 +25 комфорт 1013.8 1012.2
06 14.07 Ю 2-4
{4}
10 км ясно +19.4 +16.2 82 +22 +22 комфорт 1014.2 1012.5 +18.8
09 14.07 С 8-14
{16}
10 км ясно +24.2 +17.9 68 +28 +30 душно 1014.8 1013.1
12 14.07 СВ 8-14
{21}
10 км ясно +26.0 +15.7 53 +29 +33 душно 1014.6 1012.9
15 14.07 В 12-16
{17}
15 км ясно +27.9 +13.4 41 +30 +30 жарко 1012.8 1011.1
18 14.07 С 8-14
{17}
15 км ясно +27.6 +15.9 49 +31 +31 душно 1012.2 1010.5 +30.3
21 14.07 В 2-4
{12}
15 км ясно +26.3 +13.4 45 +28 +28 жарко 1012.9 1011.2
00 15.07 В 2-4
{12}
15 км ясно +21.2 +13.0 59 +23 +23 комфорт 1012.6 1010.9
03 15.07 Ю 4-4
{6}
15 км ясно +20.8 +14.2 66 +24 +24 комфорт 1011.9 1010.2
06 15.07 В 6-6
{6}
15 км ясно +20.5 +12.2 59 +22 +23 комфорт 1012.5 1010.8 +18.7
09 15.07 С 6-14
{14}
15 км ясно +25.5 +17.4 61 +30 +34 душно 1012.9 1011.2
12 15.07 В 8-16
{16}
15 км ясно +26.2 +17.6 59 +30 +34 душно 1013.1 1011.4
15 15.07 С 10-12
{14}
15 км ясно +26.9 +16.2 52 +30 +31 душно 1012.0 1010.3
18 15.07 СВ 4-6
{6}
15 км ясно +27.1 +17.6 56 +31 +32 душно 1011.2 1009.5 +28.7
21 15.07 В 2-4
{4}
15 км ясно +24.4 +16.9 63 +28 +28 душно 1012.1 1010.4
00 16.07 штиль 0-2
{4}
15 км ясно +22.6 +16.4 68 +27 +27 душно 1012.4 1010.7
03 16.07 Ю 2-4
{4}
15 км ясно +20.5 +13.9 66 +24 +24 комфорт 1011.7 1010.0
06 16.07 Ю 2-4
{4}
15 км ясно +20.1 +13.3 65 +23 +23 комфорт 1012.2 1010.5 +19.0
09 16.07 СЗ 10-14
{14}
15 км ясно +24.2 +17.7 67 +28 +29 душно 1013.4 1011.7
12 16.07 СЗ 8-10
{10}
15 км ясно +23.5 +18.4 73 +28 +32 душно 1014.2 1012.5
15 16.07 С 8-16
{16}
15 км ясно +24.2 +17.9 68 +28 +31 душно 1013.6 1011.9
18 16.07 С 4-6
{16}
15 км ясно +24.4 +17.4 65 +28 +29 душно 1013.0 1011.3 +25.2
21 16.07 СВ 4-2
{8}
15 км ясно +21.5 +18.1 81 +26 +26 душно 1014.1 1012.4
00 17.07 С 2-2
{4}
8000 м ясно +20.0 +17.6 86 +24 +24 комфорт 1014.4 1012.7
03 17.07 Ю 4-6
{6}
8000 м 4/0
[Ci sp]
+20.1 +18.0 88 +23 +23 комфорт 1013.9 1012.2
06 17.07 ЮВ 2-4
{4}
6000 м 3/3 400 м
[St]
+19.4 +17.4 88 +22 +22 комфорт 1014.6 1012.9 +18.7
09 17.07 С 8-17
{17}
6000 м 4/4 400 м
[Sc]
+23.6 +17.6 69 +28 +29 душно 1015.5 1013.8
12 17.07 С 8-10
{17}
6000 м 4/4 400 м
[Sc]
+23.5 +17.7 70 +28 +30 душно 1015.7 1014.0
15 17.07 С 10-6
{6}
8000 м 4/4 400 м
[Sc]
+23.0 +17.9 73 +28 +29 душно 1015.0 1013.3
18 17.07 С 4-5
{5}
15 км ясно +23.6 +15.1 59 +26 +27 жарко 1013.6 1011.9 +24.5
21 17.07 штиль 0-2
{2}
15 км ясно +21.4 +16.6 74 +25 +25 комфорт 1014.5 1012.8
00 18.07 Ю 2-2
{2}
15 км ясно +20.1 +14.5 70 +23 +23 комфорт 1014.7 1013.0
03 18.07 штиль 0-1
{1}
15 км ясно +18.2 +14.1 77 +18 +18 1013.8 1012.1
06 18.07 штиль 0-1
{1}
15 км ясно +18.5 +14.2 76 +19 +20 1014.3 1012.6 +17.2
09 18.07 С 6-7
{7}
8000 м 1/1 400 м
[St]
+23.2 +17.2 69 +28 +32 душно 1014.7 1013.0
12 18.07 СЗ 12-8
{8}
15 км ясно +23.9 +17.4 67 +28 +28 душно 1014.4 1012.7
15 18.07 СЗ 12-14
{21}
10 км ясно +24.2 +16.5 62 +28 +28 душно 1013.1 1011.4
18 18.07 СЗ 6-10
{16}
10 км ясно +23.0 +18.3 75 +29 +29 очень
душно
1012.7 1011.0 +25.1
21 18.07 З 4-6
{6}
10 км ясно +20.8 +18.6 87 +25 +25 комфорт 1013.4 1011.7
00 19.07 штиль 0-2
{2}
10 км ясно +20.3 +18.6 90 +24 +24 комфорт 1013.7 1012.0
03 19.07 З 1 6000 м ясно +18.8 +17.5 92 +21 +21 комфорт 1012.9 1011.2
06 19.07 штиль 0-2
{4}
7000 м 3/0
[]
+19.7 +18.0 90 +22 +23 комфорт 1013.3 1011.6 +18.3
09 19.07 С 8-10
{14}
7000 м 4/4 300 м
[St]
+22.8 +19.0 79 +29 +30 очень
душно
1013.1 1011.4
12 19.07 С 14-17
{17}
8000 м 5/5 400 м
[Cu med, cong]
+24.2 +20.5 80 +30 +30 очень
душно
1012.2 1010.5
15 19.07 С 10-16
{19}
10 км 4/4 400 м
[Cu med, cong]
+27.5 +20.6 66 +34 +35 очень
душно
1010.2 1008.5
18 19.07 СЗ 10-12
{19}
15 км ясно +24.6 +20.7 79 +31 +31 очень
душно
1010.7 1009.0 +28.6

 

Местоположение метеостанции Эль-Хосейма (Марокко): широта 35.18 долгота -3.85 высота над уровнем моря 14 м.

В архиве по умолчанию представлена погода в Эль-Хосейме за последнюю неделю. Архивные данные за месяц целиком и за предыдущие месяцы, начиная с января 2011 года, Вы можете получить, выбрав интересующий диапазон дат из раскрывающегося списка и нажав кнопку "Ввод!".


*Определитесь, кто Вы:
робот инопланетянин человек

Внимание! Время в таблицах - всемирное. Для получения местного времени необходимо прибавить поправку, которая равна 0 ч.

Смотрите также архив погоды в соседних городах и на ближайших метеорологических станциях:

Погода в Аль-Аруи (Марокко) (79 км)
Погода в Мелилье (Испания) (83 км)
Погода в Тазе (Марокко) (108 км)
Погода в Шавене (Марокко) (132 км)
Погода в Тетуане (Марокко) (141 км)
Погода в Сеуте (Испания) (157 км)
Погода в Фуэнхироле (Испания) (166 км)
Погода Гибралтаре (Гибралтар) (173 км)
Погода в Фесе (Марокко) (173 км)
Погода в Мотриле - клуб Наутико (Испания) (174 км)

Пояснения к столбцам:

Ветер - указаны скорость ветра в м/с - средняя за 10 мин, порывы в срок и между сроками (в фигурных скобках) и направление, откуда дует ветер: С - северный, СВ - северо-восточный, В - восточный, ЮВ - юго-восточный, Ю - южный, ЮЗ - юго-западный, З - западный, СЗ - северо-западный.
Видимость - горизонтальная дальность видимости в метрах или километрах. При видимости от 1 до 10 км при отсутствии осадков обычно наблюдается дымка, при ухудшении видимости до 1 км и менее - туман. В сухую погоду видимость может ухудшаться дымом, пылью или мглою.
Явления - указаны атмосферные явления, наблюдавшиеся в срок или в последний час перед сроком; фигурными скобками обозначены явления, наблюдавшиеся между сроками (за 1-3 часа до срока); квадратными скобками обозначены град или гололедные отложения с указанием их диаметра в мм.
Облачность - указаны через наклонную черту общая и нижняя облачность в баллах и высота нижней границы облаков в метрах; квадратными скобками обозначены формы облаков: Ci - перистые, Cs - перисто-слоистые, Cc - перисто-кучевые, Ac - высококучевые, As - высокослоистые, Sc - слоисто-кучевые, Ns - слоисто-дождевые, Cu - кучевые, Cb - кучево-дождевые. Подробнее классификацию облаков см. в Атласе облаков (PDF).
T - Температура воздуха - температура, измеренная на высоте 2 м над землей.
Td - Температура точки росы - температура, при понижении до которой содержащийся в воздухе водяной пар достигнет насыщения.
f - Относительная влажность воздуха - влажноcть воздуха, измеренная на высоте 2 м над землей.
Te - Эффективная температура - температура, которую ощущает одетый по сезону человек в тени. Характеристика душности погоды. При расчете учитывается влияние влажности воздуха и скорости ветра на теплоощущения человека.
Tes - Эффективная температура на солнце - температура, которую ощущает человек, с поправкой на солнечный нагрев. Характеристика знойности погоды. Зависит от высоты солнца над горизонтом, облачности и скорости ветра. Ночью, в пасмурную погоду, а также при ветре 12 м/с и более поправка равна нулю.
P - Атмосферное давление - приведенное к уровню моря атмосферное давление.
Po - Атмосферное давление - измеренное на уровне метеостанции атмосферное давление.
Tmin - Минимальная температура - минимум температуры воздуха на высоте 2 м над землей.
Tmax - Максимальная температура - максимум температуры воздуха на высоте 2 м над землей.
R - Количество осадков - Количество выпавших осадков за период времени, мм. При наведении курсора мыши на число - период времени, за который выпало указанное количество осадков.
R24 - Количество осадков - Количество выпавших осадков за 24 часа, мм.
S - Снежный покров - Высота снежного покрова, см. При наведении курсора мыши на число - состояние снежного покрова и степень покрытия местности в баллах.